Find Local Weather

World > North America > United States > Wisconsin

Mellen, Wisconsin Regional Weather

Lat: 46.32N, Lon: 90.66W
Wx Zone: WIZ003
Warning FLW WEATHER ALERT - HARD FROST ADVISORY (More Info. Click Here) Warning
Feedback
Expires:201809220800;;022281
ASUS43 KMKX 220721
RWRWI 

WISCONSIN REGIONAL WEATHER ROUNDUP
NATIONAL WEATHER SERVICE MILWAUKEE/SULLIVAN WI
200 AM CDT SAT SEP 22 2018

NOTE: "FAIR" INDICATES FEW OR NO CLOUDS BELOW 12,000 FEET WITH NO
SIGNIFICANT WEATHER AND/OR OBSTRUCTIONS TO VISIBILITY.


WIZ003>005-009-010-017-018-220800-
NORTH CENTRAL WISCONSIN
  
CITY           SKY/WX    TMP DP  RH WIND       PRES   REMARKS
MANITOWISH WTR FOG       35  35 100 CALM      30.29R VSB 3/4          
ARBOR VITAE    FAIR      39  37  92 CALM      30.29R                  
WOODRUFF       FAIR      39  37  92 CALM      30.29R                  
RHINELANDER    FAIR      37  36  96 W7        30.30S WCI  32          
EAGLE RIVER    FAIR      36  36 100 SW5       30.28S WCI  32          
LAND O LAKES   FOG       34  34 100 CALM      30.29S VSB 1/2          
PHILLIPS       FAIR      34  34 100 CALM      30.31R                  
TOMAHAWK       FAIR      33  32  98 CALM      30.32R                  
MEDFORD        FAIR      38  37  94 CALM      30.33S                  
MERRILL        FAIR      33  33 100 CALM      30.33S FOG              
$$
 

SKY/WX - Weather  TMP - Temperature  DP - Dew Point  RH - Relative Humidity
WIND - Wind Direction/Speed PRES - Barometric Pressure